Location: Pine Mountain Observatory
(43.7910°N, 120.9377°W)
Time: 06:43:04
(UTC-07:00)

Vanguard 1 Rocket - Pass Details

Date: 23 May 2019
Orbit: 652 x 4224 km, 34.3° (Epoch: 24 June)

Event Time Altitude Azimuth Distance (km) Brightness Sun altitude
Exits shadow 03:40:47 24° 215° (SW) 1,887 8.4 -15.9°
Maximum altitude 03:43:54 38° 164° (SSE) 1,678 8.5 -15.5°
Drops below altitude 10° 03:52:47 10° 101° (ESE) 4,181 11.2 -14.5°
Sets 03:57:37 0° 95° (E) 5,793 12.1 -13.9°
